Regional Weather Roundup
Issued by NWS Charleston, SC

Home | Current Version | Previous Version | Text Only | Print | Product List | Glossary On
Versions: 1 2 3 4 5 6 7 8 9 10 11 12 13 14 15 16 17 18 19 20 21 22 23 24 25 26 27 28 29 30 31 32 33 34 35 36 37 38 39 40 41 42 43 44 45 46 47 48 49 50
000
ASUS42 KCHS 250412
RWRCHS

Regional Weather Roundup
National Weather Service Charleston SC
1100 PM EST SAT FEB 24 2018

NOTE: "fair" indicates few or no clouds below 12,000 feet with no
significant weather and/or obstructions to visibility.

Not all stations are quality controlled. Use data with caution,
especially dewpoint observations.

SCZ027-030-031-034>040-042>050-250500-
...Southeast South Carolina...

CITY           SKY/WX    TMP DP  RH WIND       PRES   REMARKS
N Charleston   FAIR      65  62  90 S8        30.15R
Waterfront Prk   N/A     67  65  93 S7        30.00R
Mount Pleasant FAIR      66  64  94 S5        30.16S
Johns Island   FAIR      66  64  94 S6        30.16S
Pinopolis        N/A     66  64  94 VRB2      30.06R
Moncks Corner  FAIR      63  61  94 S3        30.14S
Summerville    FAIR      64  63  94 S3        30.15S
Beaufort MCAS  FAIR      67  66  97 S6        30.15S
Beaufort Arpt  FAIR      64  63  94 SW3       30.16R
Hilton Head Is FAIR      66  64  94 VRB6      30.17R
Walterboro     FAIR      63  63 100 S5        30.15S
Allendale      FAIR      66  61  82 S7        30.12S

...Southern Midlands and Pee Dee...

CITY           SKY/WX    TMP DP  RH WIND       PRES   REMARKS
Georgetown     FAIR      63  63 100 S5        30.16S
Kingstree      FAIR      64  63  94 S6        30.13F
Orangeburg     FAIR      66  60  81 S12       30.12S
Barnwell         N/A     70  61  73 S7        30.12S
Aiken          FAIR      64  59  82 S9        30.14R
Manning        FAIR      64  52  63 MISG      30.14S
Columbia       FAIR      70  61  73 S12       30.09S
Sumter         FAIR      67  59  77 S8        30.10S
Florence       FAIR      67  61  81 S8        30.12F
Myrtle Beach   FAIR      66  64  93 S9        30.16S
N Myrtle Beach FAIR      64  62  93 SW9       30.15R

$$

GAZ063-065-086>088-099>101-113>116-118-119-134>141-150-250500-
...Southeast Georgia...

CITY           SKY/WX    TMP DP  RH WIND       PRES   REMARKS
Savannah Arpt  FAIR      67  65  93 S7        30.15S
Hunter AAF     FAIR      67  64  89 S6        30.13S
Fort Stewart   FAIR      67  63  87 S3        30.13R
Statesboro     FAIR      69  60  74 S7        30.13S
Sylvania       FAIR      68  64  88 S3        30.14S
Claxton        FAIR      69  64  83 SE3       30.15R

...CSRA, Central and far Southeast Georgia...

CITY           SKY/WX    TMP DP  RH WIND       PRES   REMARKS
Thomson        FAIR      69  58  68 SW7       30.14R
Augusta-Bush   FAIR      69  61  75 S13       30.09S
Augusta-Daniel FAIR      71  61  70 S7        30.10S
Swainsboro     FAIR      70  63  78 S9        30.14R
Vidalia        FAIR      70  63  78 S6        30.14S
Eastman        FAIR      70  51  50 SW6       30.14F
Hazlehurst     FAIR      70  55  60 S3        30.13R
Alma           FAIR      69  62  78 S5        30.14S
Waycross       FAIR      66  64  90 S5        30.15F
Jesup          FAIR      66  63  88 CALM      30.16S
Baxley         FAIR      68  64  88 S6        30.14S
Brunswick      MOCLDY    70  63  78 S10       30.17R
Saint Simons   CLOUDY    69  67  93 S5        30.16R

$$

SCZ027-028-034-036>038-045-046-048>050-GAZ119-141-250500-
...Lake and Supplemental Coastal Observations...

STATION/POSITION TIME  TEMP    WIND        PRES    WAVE   SWELL
                       AIR SEA DIR/SP/G            HT/PER HT/PER/DIR
                 (UTC) (F)     (DEG/KT/KT) (MB)    (FT/S) (FT/S/D)
Winyah Bay       0245   67     210/  5     1021.0
Lake Murray      0320   68     170/ 13/ 15 1018.3R
ACE Basin NERRS  0245   65     140/  2     1021.0
Fort Pulaski     0342   67 64  190/  4/  8 1021.5R
Sapelo Island    0300   68     170/  7     1021.0

$$

ANZ835-935-AMZ111-154-330-350-352-354-370-450-454-472-250500-
...C-MAN and Buoy Observations...

STATION/POSITION TIME  TEMP    WIND        PRES    WAVE   SWELL
                       AIR SEA DIR/SP/G            HT/PER HT/PER/DIR
                 (UTC) (F)     (DEG/KT/KT) (MB)    (FT/S) (FT/S/D)
Buoy 41004       0350   71     180/  8/ 12 1021.6F   4/ 9   3/130/ 9
Buoy 41008       0350   64 60  150/  8/  8 1021.0R   3/ 9   3/ 90/ 9
Folly Beach CMAN 0400   65     160/  7/  8 1021.6R
Capers Nearshore 0308   62 63  170/ 10/ 16 1020.7S
Fripp Nearshore  0308   61 63  170/  8/ 12 1020.0R


STATION/POSITION TIME  TEMP    WIND        PRES    WAVE   SWELL
                       AIR SEA DIR/SP/G            HT/PER HT/PER/DIR
                 (UTC) (F)     (DEG/KT/KT) (MB)    (FT/S) (FT/S/D)
5E St. Marys GA  0400      63                N/A     3/ 8   2/100/11
Frying Pan Buoy  0350          200/ 16/ 19 1021.1F   5/ 9   3/130/ 9
Buoy 41025       0350   72 73  230/ 16/ 19 1021.1F
Cape Lookout NC  0300          210/  9/ 12 1021.3F
Buoy 41002       0350   72 73  190/ 12/ 14 1024.1S   5/10   5/110/10
Buoy 41010       NOT AVBL
St Augustine FL  0400   70 70  170/ 13/ 14 1021.5R


$$




USA.gov is the U.S. government's official web portal to all federal, state and local government web resources and services.